When you browse on this site, cookies collect data to enhance your experience and personalize the content and advertising you see.
Visit our Privacy Policy to learn more. By continuing to use the site, you agree to this use of cookies and data.
  • En España
  • Lista de países
  • Para 7 días
  • Temperatura del agua
  • El tiempo en el mapa
  • Informadores
  • user-avatar
    Iniciar sesión

    Tiempo cada hora Sada

    Hoy, 13 Noviembre, Miércoles

    Tiempo Temperatura Precipitaciones Viento Presión Humedad
    00:00 +11°C° 0 mm 3 mps 570 mmHg 42%
    01:00 +11°C° 0 mm 3 mps 569 mmHg 45%
    02:00 +10°C° 0 mm 3 mps 568 mmHg 47%
    03:00 +10°C° 0 mm 3 mps 568 mmHg 50%
    04:00 +9°C° 0 mm 3 mps 568 mmHg 52%
    05:00 +9°C° 0 mm 3 mps 568 mmHg 54%
    06:00 +8°C° 0 mm 3 mps 568 mmHg 56%
    07:00 +10°C° 0 mm 4 mps 569 mmHg 51%
    08:00 +12°C° 0 mm 4 mps 570 mmHg 45%
    09:00 +14°C° 0 mm 4 mps 571 mmHg 39%
    10:00 +15°C° 0 mm 4 mps 571 mmHg 35%
    11:00 +17°C° 0 mm 3 mps 572 mmHg 31%
    12:00 +19°C° 0 mm 3 mps 572 mmHg 27%
    13:00 +19°C° 0 mm 3 mps 572 mmHg 28%
    14:00 +19°C° 0 mm 3 mps 571 mmHg 29%
    15:00 +19°C° 0 mm 2 mps 571 mmHg 29%
    16:00 +18°C° 0 mm 2 mps 570 mmHg 38%
    17:00 +17°C° 0 mm 2 mps 570 mmHg 46%
    18:00 +15°C° 0 mm 2 mps 570 mmHg 55%
    19:00 +15°C° 0.1 mm 2 mps 570 mmHg 53%
    20:00 +14°C° 0.1 mm 2 mps 570 mmHg 52%
    21:00 +13°C° 0.1 mm 2 mps 570 mmHg 51%
    22:00 +13°C° 0 mm 2 mps 570 mmHg 50%
    23:00 +13°C° 0 mm 2 mps 570 mmHg 50%

    Mañana, 14 Noviembre, Jueves

    Tiempo Temperatura Precipitaciones Viento Presión Humedad
    00:00 +12°C° 0 mm 2 mps 570 mmHg 49%
    01:00 +12°C° 0 mm 2 mps 569 mmHg 50%
    02:00 +10°C° 0 mm 3 mps 569 mmHg 51%
    03:00 +10°C° 0 mm 3 mps 568 mmHg 51%
    04:00 +9°C° 0 mm 3 mps 568 mmHg 52%
    05:00 +9°C° 0 mm 3 mps 568 mmHg 53%
    06:00 +8°C° 0 mm 3 mps 568 mmHg 54%
    07:00 +10°C° 0 mm 3 mps 569 mmHg 49%
    08:00 +11°C° 0 mm 3 mps 570 mmHg 44%
    09:00 +13°C° 0 mm 3 mps 571 mmHg 39%
    10:00 +14°C° 0 mm 3 mps 572 mmHg 35%
    11:00 +17°C° 0 mm 3 mps 572 mmHg 32%
    12:00 +18°C° 0 mm 3 mps 572 mmHg 28%
    13:00 +19°C° 0 mm 2 mps 572 mmHg 28%
    14:00 +19°C° 0 mm 2 mps 571 mmHg 28%
    15:00 +19°C° 0 mm 2 mps 571 mmHg 28%
    16:00 +18°C° 0 mm 2 mps 571 mmHg 35%
    17:00 +17°C° 0 mm 3 mps 571 mmHg 42%
    18:00 +14°C° 0 mm 3 mps 570 mmHg 49%
    19:00 +14°C° 0 mm 3 mps 570 mmHg 47%
    20:00 +13°C° 0 mm 3 mps 570 mmHg 46%
    21:00 +12°C° 0 mm 3 mps 570 mmHg 44%
    22:00 +12°C° 0 mm 3 mps 570 mmHg 44%
    23:00 +11°C° 0 mm 3 mps 569 mmHg 44%

    Pasado mañana, 15 Noviembre, Viernes

    Tiempo Temperatura Precipitaciones Viento Presión Humedad
    00:00 +10°C° 0 mm 3 mps 569 mmHg 44%
    01:00 +10°C° 0 mm 3 mps 569 mmHg 45%
    02:00 +10°C° 0 mm 2 mps 568 mmHg 45%
    03:00 +9°C° 0 mm 2 mps 568 mmHg 45%
    04:00 +9°C° 0 mm 2 mps 568 mmHg 46%
    05:00 +9°C° 0 mm 2 mps 568 mmHg 46%
    06:00 +8°C° 0 mm 2 mps 568 mmHg 46%
    07:00 +10°C° 0 mm 2 mps 569 mmHg 41%
    08:00 +13°C° 0 mm 2 mps 570 mmHg 36%
    09:00 +15°C° 0 mm 2 mps 571 mmHg 31%
    10:00 +16°C° 0 mm 2 mps 571 mmHg 30%
    11:00 +17°C° 0 mm 2 mps 571 mmHg 29%
    12:00 +18°C° 0 mm 2 mps 571 mmHg 28%
    13:00 +18°C° 0 mm 2 mps 571 mmHg 29%
    14:00 +18°C° 0 mm 2 mps 571 mmHg 31%
    15:00 +19°C° 0 mm 3 mps 570 mmHg 32%
    16:00 +17°C° 0 mm 2 mps 570 mmHg 41%
    17:00 +16°C° 0 mm 2 mps 569 mmHg 51%
    18:00 +14°C° 0 mm 1 mps 569 mmHg 60%
    19:00 +14°C° 0.1 mm 1 mps 569 mmHg 57%
    20:00 +13°C° 0.1 mm 1 mps 569 mmHg 54%
    21:00 +13°C° 0.1 mm 1 mps 569 mmHg 51%
    22:00 +13°C° 0 mm 1 mps 569 mmHg 50%
    23:00 +12°C° 0 mm 1 mps 568 mmHg 49%

    16 Noviembre, Sábado

    Tiempo Temperatura Precipitaciones Viento Presión Humedad
    00:00 +12°C° 0 mm 1 mps 568 mmHg 48%
    01:00 +12°C° 0 mm 1 mps 568 mmHg 48%
    02:00 +11°C° 0 mm 1 mps 567 mmHg 48%
    03:00 +11°C° 0 mm 1 mps 567 mmHg 48%
    04:00 +11°C° 0 mm 1 mps 567 mmHg 49%
    05:00 +10°C° 0 mm 1 mps 567 mmHg 50%
    06:00 +10°C° 0 mm 1 mps 567 mmHg 51%
    07:00 +12°C° 0 mm 1 mps 568 mmHg 47%
    08:00 +13°C° 0 mm 1 mps 569 mmHg 42%
    09:00 +15°C° 0 mm 2 mps 571 mmHg 38%
    10:00 +16°C° 0 mm 2 mps 570 mmHg 37%
    11:00 +17°C° 0 mm 2 mps 570 mmHg 37%
    12:00 +18°C° 0 mm 2 mps 570 mmHg 37%
    13:00 +18°C° 0 mm 2 mps 570 mmHg 40%
    14:00 +18°C° 0 mm 3 mps 570 mmHg 44%
    15:00 +18°C° 0 mm 3 mps 569 mmHg 48%
    16:00 +17°C° 0.1 mm 3 mps 569 mmHg 56%
    17:00 +15°C° 0.1 mm 2 mps 569 mmHg 63%
    18:00 +14°C° 0.1 mm 1 mps 568 mmHg 71%
    19:00 +14°C° 0.2 mm 1 mps 568 mmHg 68%
    20:00 +14°C° 0.2 mm 1 mps 569 mmHg 65%
    21:00 +13°C° 0.2 mm 1 mps 569 mmHg 62%
    22:00 +13°C° 0.1 mm 1 mps 569 mmHg 62%
    23:00 +13°C° 0.1 mm 1 mps 568 mmHg 61%

    17 Noviembre, Domingo

    Tiempo Temperatura Precipitaciones Viento Presión Humedad
    00:00 +12°C° 0.1 mm 1 mps 568 mmHg 60%
    01:00 +12°C° 0 mm 1 mps 568 mmHg 60%
    02:00 +11°C° 0 mm 1 mps 567 mmHg 60%
    03:00 +11°C° 0 mm 1 mps 567 mmHg 60%
    04:00 +11°C° 0 mm 1 mps 567 mmHg 59%
    05:00 +10°C° 0 mm 1 mps 567 mmHg 59%
    06:00 +10°C° 0 mm 1 mps 567 mmHg 58%
    07:00 +12°C° 0 mm 1 mps 568 mmHg 52%
    08:00 +13°C° 0 mm 2 mps 569 mmHg 45%
    09:00 +15°C° 0 mm 2 mps 571 mmHg 38%
    10:00 +16°C° 0 mm 2 mps 571 mmHg 37%
    11:00 +17°C° 0 mm 2 mps 571 mmHg 36%
    12:00 +18°C° 0 mm 2 mps 571 mmHg 35%
    13:00 +18°C° 0 mm 2 mps 571 mmHg 38%
    14:00 +18°C° 0 mm 3 mps 570 mmHg 40%
    15:00 +18°C° 0 mm 3 mps 570 mmHg 43%
    16:00 +17°C° 0 mm 2 mps 570 mmHg 51%
    17:00 +16°C° 0 mm 2 mps 569 mmHg 60%
    18:00 +15°C° 0 mm 2 mps 569 mmHg 69%
    19:00 +14°C° 0.2 mm 1 mps 569 mmHg 66%
    20:00 +14°C° 0.2 mm 1 mps 570 mmHg 64%
    21:00 +14°C° 0.2 mm 1 mps 570 mmHg 61%
    22:00 +14°C° 0 mm 1 mps 570 mmHg 61%
    23:00 +13°C° 0 mm 1 mps 569 mmHg 60%

    18 Noviembre, Lunes

    Tiempo Temperatura Precipitaciones Viento Presión Humedad
    00:00 +13°C° 0 mm 1 mps 569 mmHg 60%
    01:00 +12°C° 0 mm 1 mps 569 mmHg 61%
    02:00 +12°C° 0 mm 1 mps 568 mmHg 61%
    03:00 +12°C° 0 mm 1 mps 568 mmHg 62%
    04:00 +11°C° 0 mm 1 mps 568 mmHg 61%
    05:00 +11°C° 0 mm 1 mps 568 mmHg 60%
    06:00 +9°C° 0 mm 2 mps 568 mmHg 59%
    07:00 +12°C° 0 mm 1 mps 569 mmHg 53%
    08:00 +14°C° 0 mm 1 mps 570 mmHg 46%
    09:00 +16°C° 0 mm 1 mps 571 mmHg 39%
    10:00 +18°C° 0 mm 1 mps 571 mmHg 37%
    11:00 +18°C° 0 mm 2 mps 572 mmHg 35%
    12:00 +20°C° 0 mm 2 mps 572 mmHg 33%
    13:00 +20°C° 0 mm 2 mps 571 mmHg 35%
    14:00 +20°C° 0 mm 3 mps 571 mmHg 38%
    15:00 +20°C° 0 mm 3 mps 571 mmHg 41%
    16:00 +18°C° 0.1 mm 3 mps 571 mmHg 49%
    17:00 +17°C° 0.1 mm 2 mps 570 mmHg 57%
    18:00 +16°C° 0.1 mm 1 mps 570 mmHg 66%
    19:00 +15°C° 0.1 mm 1 mps 570 mmHg 62%
    20:00 +15°C° 0.1 mm 1 mps 570 mmHg 59%
    21:00 +15°C° 0.1 mm 1 mps 570 mmHg 55%
    22:00 +14°C° 0.1 mm 1 mps 570 mmHg 56%
    23:00 +14°C° 0.1 mm 1 mps 570 mmHg 56%
    Mostrar más